Location: Newark
(49.8753°N, 23.0797°E)
Time: 02:16:20
(UTC+00:00)

ISS - Pass Details

Date: 01 July 2021
Orbit: 419 x 421 km, 51.6° (Epoch: 02 August)

Event Time Altitude Azimuth Distance (km) Brightness Sun altitude
Exits shadow 00:00:43 13° 142° (SE) 1,328 -1.5 -14.5°
Maximum altitude 00:01:00 13° 137° (SE) 1,322 -1.5 -14.4°
Drops below altitude 10° 00:02:39 10° 107° (ESE) 1,501 -0.9 -14.3°
Sets 00:05:37 0° 79° (E) 2,369 0.6 -14.2°
